Tracking 29892 objects as of 21-Nov-2024
HD Live streaming from Space Station
objects crossing your sky now

OBJECT F

Track OBJECT F now!
10-day predictions


NORAD ID: 58825
Int'l Code: 2024-016F
Perigee: 484.0 km
Apogee: 499.4 km
Inclination: 97.5 °
Period: 94.3 minutes
Semi major axis: 6862 km
RCS: Unknown
Launch date: January 23, 2024
Source: People's Republic of China (PRC)
Launch site: Jiuquan Satellite Launch Center, China (JSC)
Your satellite tracking list
Your tracking list is empty




NASA's NSSDC Master Catalog

Two Line Element Set (TLE):
1 58825U 24016F   24326.13834373  .00034341  00000-0  12888-2 0  9994
2 58825  97.4949  39.7414 0011221 315.1352  44.8979 15.27077822 45862
Source of the keplerian elements: AFSPC